Regional Weather Roundup
Issued by NWS

Home | Current Version | Previous Version | Text Only | Print | Product List | Glossary Off
Versions: 1 2 3 4 5 6 7 8 9 10 11 12 13 14 15 16 17 18 19 20 21 22 23 24 25 26 27 28 29 30 31 32 33 34 35 36 37 38 39 40 41 42 43 44 45 46 47 48 49 50

000
ASUS45 KBOI 120510
RWRID

IDAHO REGIONAL WEATHER ROUNDUP
NATIONAL WEATHER SERVICE BOISE ID
1000 PM MST MON DEC 11 2017

NOTE: "FAIR" INDICATES FEW OR NO CLOUDS BELOW 12000 FEET
WITH NO SIGNIFICANT WEATHER AND/OR OBSTRUCTIONS TO VISIBILITY

IDZ012-014-120600-
SOUTHWEST IDAHO


CITY           SKY/WX    TMP DP  RH WIND       PRES   REMARKS
BOISE          CLOUDY    25  21  85 N3        30.66S
CALDWELL       NOT AVBL
MOUNTAIN HOME  CLOUDY    23  23 100 CALM      30.66R
$$

IDZ016-017-120600-
SOUTHCENTRAL IDAHO


CITY           SKY/WX    TMP DP  RH WIND       PRES   REMARKS
BURLEY         FOG       20  19  96 W5        30.57S VSB 1/4 WCI  13
JEROME         HAZE      25  19  78 CALM      30.60R VSB 1/4
TWIN FALLS     FOG       21  19  92 CALM      30.59R VSB<1/4
$$

IDZ019>023-120600-
SOUTHEAST IDAHO


CITY           SKY/WX    TMP DP  RH WIND       PRES   REMARKS
IDAHO FALLS    CLOUDY    16  14  92 N3        30.58R
POCATELLO      CLOUDY    19  16  88 CALM      30.57S
REXBURG        CLOUDY    16  13  88 NE5       30.57R WCI   9
$$

IDZ006-010-011-018-031-032-120600-
CENTRAL IDAHO MOUNTAINS


CITY           SKY/WX    TMP DP  RH WIND       PRES   REMARKS
MCCALL         CLEAR     15  11  83 CALM      30.51S
HAILEY         CLEAR     27  18  69 W7        30.56S WCI  19
STANLEY          N/A      7   4  87 CALM      30.60S
SALMON         CLOUDY    15  13  91 E5        30.71R WCI   8
CHALLIS        CLEAR     14   8  77 CALM      30.61R
$$

IDZ002-004-006-007-026-120600-
NORTHERN IDAHO


CITY           SKY/WX    TMP DP  RH WIND       PRES   REMARKS
LEWISTON       CLOUDY    29  25  85 W3        30.61F
LOWELL           N/A     24  24 100 CALM      30.63R
COEUR D`ALENE  CLEAR     20  18  92 SW3       30.56S
MULLAN PASS    CLEAR     40   1  19 S5        30.45S
$$



USA.gov is the U.S. government's official web portal to all federal, state and local government web resources and services.